DMSP 5D-2 F13 DEB, 42276

Orbit data source: Space-Track

DMSP 5D-2 F13 DEB, 42276 is space debris in SSO originally from a launch on Fri, 24 Mar 1995 UTC launched from the Air Force Western Test Range (AFWTR). Debris objects in space refer to the collection of defunct objects orbiting the Earth. Examples of debris include non-operational satellites, rocket bodies, and fragments generated from explosions, collisions, or faulty payload assembly.

Loading next visibility...
Identifier
42276, 1995-015GS
Orbit
SSO
Country
Flag of USUS
Related business
Manufacturer
Unknown
Mission
Spacecraft
Bus & Motor
Unknown
Mass
Unknown
Launch date (UTC)
1995-03-24 (31 years ago)
Launch vehicle
Unknown
Launch site
Air Force Western Test Range (AFWTR)
Object type
Payload
Rocket body
Debris
Shape & HBR
Unknown shape, 0.1 m
Radar Cross Section
Small (<0.1 m²)

Expand to show TLE details & history
Last TLE update: 3 weeks ago

TLE from 3 weeks ago
0 DMSP 5D-2 F13 DEB
1 42276U 95015GS  26212.99453186  .00000275  00000-0  23197-3 0  9998
2 42276  99.0848 131.7880 0113453 345.8105  13.9877 13.93300180573864
Epoch: 2026-07-31T23:52Z
TLE epoch observation values (Epoch: 2026-07-31T23:52:07.552Z)
Latitude
-0.00003°
Longitude
-175.85617°
Altitude
839.683 km
Speed
7.474 km/s
True Right ascension
08h 47m 09s
True Declination
0° 00' 00"
Sunlit
Object was in daylight at epoch
Visualization orbit readout
Latitude
Unknown
Longitude
Unknown
Altitude
Unknown
Speed
Unknown
Apparent Right ascension
Unknown
Apparent Declination
Unknown
Sunlit
N/A
Visualization observer readout
Local Sidereal Time
15:53:49
Azimuth
Unknown
Elevation
Unknown
Doppler factor
Unknown
Orbital elements
Apogee altitude
997.035 km
Perigee altitude
831.565 km
Semi-major axis
7,292.437 km
Eccentricity
0.01135
Inclination
99.0848°
RAAN
131.788°
Arg. of periapsis
345.8105°
True anomaly
14.30633°
Mean anomaly
13.9877°
Eccentric anomaly
14.14657°
Mean motion
3.48525 °/min
Orbital period
103.29 mins
BSTAR
0.00023197

Documentation

Showing up to 5 results
|